Location: Laguna de la Cañada del Gallo
(40.3974°N, 5.2096°W)
Time: 12:15:40
(UTC+00:00)

Cosmos 1932 - Pass Details

Date: 18 April 2024
Orbit: 940 x 990 km, 65.0° (Epoch: 21 May)

Event Time Altitude Azimuth Distance (km) Brightness Sun altitude
Rises 20:54:36 0° 327° (NNW) 3,626 8.7 -19.9°
Reaches altitude 10° 20:57:10 10° 327° (NNW) 2,672 7.8 -20.3°
Maximum altitude 21:03:24 83° 241° (WSW) 953 4.4 -21.2°
Enters shadow 21:05:59 38° 157° (SSE) 1,406 4.9 -21.6°
